Wind_Speed
92 93 93 94 94 95 95 95 95 95 96 96 96 96 96 96 96 96 96 96 96 96 96 96 96 96 96 96 96 95 95 95 95 95 94 95 95 95 95 96 96 97 97 98 99 100 101 101 102 103 103 104 104 105 105 106 107 107 108 108 109 109 109 109 110 110 109 109 109 108 108 107 107 106 105 104 104 103 102 102 101 101 100 99 98 97
93 93 94 94 94 95 95 95 95 95 95 95 95 95 95 95 96 96 96 96 96 96 95 95 95 95 95 95 95 95 95 95 95 94 94 95 95 95 96 96 97 98 99 100 101 102 103 103 104 105 105 106 107 107 108 108 109 109 110 110 110 111 111 111 111 111 111 111 111 110 110 109 109 108 107 106 105 104 103 103 102 101 101 100 100 99
93 93 94 94 94 94 95 95 94 94 94 95 95 95 95 95 95 95 95 95 95 95 95 94 94 94 94 94 94 94 94 94 94 94 95 95 95 96 97 98 98 99 100 101 103 104 105 105 106 107 108 108 109 110 110 111 111 112 112 112 112 112 112 113 112 112 112 112 112 112 111 111 110 110 109 108 107 106 105 104 103 102 101 101 100 100
93 93 94 94 94 94 94 94 94 94 94 94 94 94 94 94 94 94 94 94 94 94 94 93 93 93 93 94 94 94 94 94 94 95 95 96 96 97 98 99 100 101 102 103 104 105 106 107 108 109 110 111 112 112 113 113 114 114 114 114 114 114 114 114 113 113 113 113 113 112 112 112 111 111 110 109 108 107 106 105 103 102 101 101 100 100
93 93 94 94 94 94 93 93 93 93 93 93 93 93 93 93 93 93 93 93 93 93 93 93 93 93 93 93 93 94 94 94 95 95 96 96 97 98 99 100 101 102 103 104 106 107 108 109 110 111 112 113 114 114 115 115 116 116 116 116 115 115 115 114 114 114 113 113 112 112 112 111 111 110 109 109 108 107 106 105 104 102 101 100 100 100
93 93 93 93 93 93 93 93 92 92 92 92 92 92 92 92 92 92 92 91 91 91 92 92 92 92 92 93 93 93 94 94 95 95 96 97 98 99 100 101 102 103 105 106 107 109 110 111 112 113 114 115 116 116 117 117 117 117 117 117 116 116 116 115 115 114 113 112 112 111 110 109 109 108 107 107 106 105 104 103 102 101 100 99 98 98
93 93 92 92 92 92 92 92 92 91 91 91 91 91 91 91 90 90 90 90 90 90 91 91 91 92 92 93 93 93 94 94 95 96 97 98 99 100 101 102 103 105 106 107 109 110 112 113 114 115 116 117 117 118 118 118 118 118 118 118 117 117 116 115 115 114 113 111 110 109 108 107 106 105 104 103 103 102 101 101 100 99 98 97 97 96
92 92 92 92 92 92 91 91 91 91 90 90 90 90 90 90 89 89 89 89 89 89 90 90 91 92 92 93 93 94 94 95 95 96 97 98 99 101 102 103 104 106 107 109 110 112 113 115 116 117 118 119 119 120 120 120 119 119 119 118 118 117 116 115 114 112 111 110 108 106 105 104 102 101 101 100 99 98 98 97 97 96 96 95 94 94
92 92 92 91 91 91 91 91 90 90 89 89 88 88 88 88 88 88 88 88 88 89 89 90 91 92 92 93 93 94 94 95 96 97 98 99 100 102 103 104 105 107 109 110 112 113 115 116 118 119 120 120 121 121 121 121 120 120 119 118 118 116 115 114 112 110 109 107 105 103 102 100 99 98 97 96 95 95 95 94 94 93 93 93 92 91
91 91 91 90 90 90 90 90 90 89 88 87 87 86 86 86 86 87 87 87 88 88 89 90 91 92 93 93 93 94 94 95 96 97 98 100 101 103 104 105 106 108 110 111 113 115 116 118 119 120 121 121 122 122 122 121 121 120 119 118 116 115 113 111 109 107 105 104 102 100 99 97 96 95 94 93 92 92 92 91 91 91 91 90 90 89
90 90 90 89 89 89 88 88 88 87 87 86 85 85 85 84 84 85 86 87 88 89 89 90 91 92 92 93 94 94 94 95 97 98 99 101 102 103 105 106 108 109 111 113 114 116 118 119 120 121 122 122 122 122 122 121 121 119 118 117 115 113 110 108 106 104 102 100 99 97 96 95 93 92 91 91 90 89 89 89 89 88 88 88 88 88
89 89 89 88 88 88 87 87 86 85 85 84 84 84 84 84 84 84 85 86 87 88 89 90 91 92 92 93 94 94 95 96 97 99 100 102 103 104 106 107 109 110 112 114 116 117 118 120 121 121 122 122 122 122 121 120 119 118 116 114 112 109 107 105 103 101 99 97 96 94 93 92 91 90 89 88 88 87 86 86 86 86 86 86 86 86
88 88 88 87 87 87 86 85 85 84 83 83 83 83 84 84 84 84 85 86 87 88 89 90 91 92 93 93 93 94 95 96 98 99 101 103 104 105 107 108 110 111 113 115 116 118 119 120 121 121 121 121 121 120 120 119 117 115 113 111 108 106 104 101 99 97 96 94 92 91 90 89 88 88 87 86 85 85 84 84 83 83 83 84 84 84
87 87 87 86 86 85 84 84 83 82 82 82 82 82 83 84 84 85 85 86 87 88 89 90 91 92 93 93 94 94 95 97 98 100 102 103 105 106 107 109 111 112 114 116 117 118 119 120 120 120 120 120 119 118 117 116 114 112 110 108 105 103 101 99 97 95 93 91 89 88 87 86 86 85 84 84 83 82 82 81 81 81 81 82 82 83
86 86 86 85 85 84 83 82 81 81 81 81 82 82 83 84 84 85 86 86 87 88 89 90 91 92 93 94 94 95 96 97 99 100 102 104 106 107 109 110 112 113 115 116 118 118 119 119 119 119 119 118 117 115 114 112 110 108 106 104 102 100 98 96 94 92 90 89 87 85 84 84 83 82 82 81 80 80 79 79 78 78 79 79 80 81
85 84 84 83 83 82 81 81 80 80 80 81 81 82 83 84 85 85 86 86 87 88 89 90 91 93 94 95 95 96 96 98 99 101 103 105 107 109 110 111 113 114 116 117 118 118 118 118 118 117 117 115 114 112 110 108 106 104 103 101 99 98 96 94 92 90 88 86 85 83 82 81 80 80 79 79 78 77 77 76 76 76 76 77 78 78
83 83 82 81 81 81 80 80 79 79 80 81 81 82 83 84 85 85 86 87 87 88 89 90 91 93 94 96 97 97 97 98 100 102 104 106 108 110 111 112 114 115 116 117 117 117 117 117 116 116 114 113 110 108 106 104 102 100 99 98 96 95 93 92 90 88 86 84 82 81 80 79 78 78 77 76 76 75 74 74 74 74 74 74 75 76
82 81 80 80 79 79 79 79 79 79 80 81 82 83 84 84 85 85 86 87 88 88 89 90 91 93 94 96 97 98 98 99 100 102 104 107 109 111 112 113 114 115 116 116 116 116 115 115 114 113 112 110 107 105 103 100 99 97 96 94 93 92 91 89 88 86 84 82 80 79 78 77 76 75 75 74 73 72 72 71 71 71 71 72 73 74
80 79 79 78 78 78 78 78 79 79 80 81 82 83 84 85 85 86 86 87 88 89 90 91 92 93 95 96 98 99 99 100 101 103 105 107 110 111 112 113 114 114 115 115 114 114 114 113 112 111 109 107 104 102 99 97 95 94 92 91 90 88 87 86 84 83 81 79 77 76 75 75 74 73 72 71 70 69 69 68 68 68 69 69 70 72
79 78 78 77 77 77 78 78 79 79 80 81 82 83 84 85 85 86 87 88 88 89 90 92 93 94 96 97 99 99 100 101 102 104 105 108 110 111 112 113 113 114 113 113 113 112 112 111 110 108 106 104 101 99 96 94 92 90 89 87 86 85 84 82 81 79 77 76 75 74 73 72 71 70 69 68 67 66 66 65 65 66 66 67 68 70
78 77 77 77 76 77 78 78 79 79 80 81 82 83 84 85 86 86 87 88 89 90 91 92 94 95 97 98 100 101 101 102 103 105 106 108 110 111 112 112 112 112 112 112 111 111 110 109 107 106 103 101 98 96 94 91 89 87 86 84 82 81 80 78 77 75 74 73 72 71 70 69 69 68 67 66 64 63 63 63 63 63 64 65 66 68
76 76 76 76 76 76 77 78 79 80 80 81 82 83 84 85 86 87 88 89 90 91 92 94 95 96 98 100 101 102 102 103 104 105 107 109 110 111 111 111 111 111 110 110 109 109 108 106 105 103 100 98 96 93 91 88 86 84 82 81 79 77 76 74 73 71 70 69 69 68 68 67 66 65 64 63 62 61 60 60 60 61 62 63 64 65
75 76 76 76 76 77 77 78 79 80 81 81 82 83 84 85 86 87 88 89 90 92 93 95 96 98 99 100 101 102 103 104 105 106 107 109 110 111 111 110 109 109 108 108 108 107 105 104 102 100 98 95 93 90 87 85 83 81 79 77 75 74 72 70 69 68 67 67 66 66 65 64 64 63 62 60 59 59 58 58 58 59 60 61 62 63
75 75 75 76 76 77 78 79 79 80 81 82 83 84 85 86 87 88 89 90 91 92 94 95 97 98 100 101 102 103 104 104 105 107 108 110 110 111 110 109 108 108 107 106 106 105 103 102 100 98 96 93 90 87 84 82 80 78 76 74 72 70 69 67 66 65 64 64 63 63 63 62 61 60 59 58 57 56 56 56 56 57 58 59 60 61
75 75 75 76 77 77 78 79 80 81 81 82 83 84 86 87 88 89 89 90 91 93 94 96 97 99 100 102 103 104 104 105 106 107 109 110 111 110 109 108 107 106 105 105 104 102 101 99 97 95 93 91 88 85 82 79 77 74 72 70 68 67 65 64 63 62 62 61 61 61 60 60 59 58 57 56 55 54 54 54 55 55 56 57 58 59
74 75 75 76 77 78 79 80 80 81 82 83 84 85 86 88 89 90 90 91 93 94 95 96 98 99 101 102 103 104 105 106 107 108 109 110 111 110 108 107 105 104 104 103 101 100 99 97 95 93 91 88 86 82 79 76 74 71 69 67 65 64 63 61 61 60 59 59 59 58 58 57 56 55 54 53 53 53 52 53 53 54 54 55 56 57
75 75 76 77 78 79 79 80 81 82 83 84 85 86 87 88 90 91 92 93 94 95 96 97 99 100 101 102 104 105 106 107 108 109 110 110 110 110 108 106 104 103 102 100 99 98 96 95 93 91 89 86 84 80 77 73 71 68 66 64 63 61 60 59 58 58 57 57 57 56 56 55 54 53 52 51 51 51 51 51 52 52 53 53 54 55
75 76 77 77 78 79 80 81 82 83 84 85 86 87 88 89 91 92 93 94 95 95 97 98 99 100 101 103 104 105 106 107 108 109 110 110 110 109 107 105 103 101 100 98 96 95 94 92 91 89 87 85 82 78 74 71 68 66 64 62 60 59 58 57 56 56 55 55 54 54 54 53 52 51 50 49 49 49 49 50 50 51 51 52 53 53
75 76 77 78 79 80 81 82 83 84 85 86 87 88 89 90 92 93 94 94 95 96 97 98 99 100 101 102 104 105 106 107 108 109 109 109 109 107 105 103 101 99 97 95 93 92 90 89 88 87 85 83 80 76 72 68 65 63 61 60 58 57 56 55 54 54 53 53 52 52 51 51 50 49 48 48 47 47 48 48 48 49 50 50 51 52
76 77 78 79 80 81 82 83 84 85 86 88 89 90 91 92 92 93 94 95 96 97 98 99 100 100 101 102 104 105 106 107 108 109 109 109 108 106 104 102 100 98 95 93 91 89 87 86 86 85 84 81 78 74 70 66 62 60 59 58 56 55 54 53 52 52 52 51 50 50 49 49 48 47 47 46 46 46 46 46 47 47 48 49 49 50
78 79 80 80 81 82 83 84 85 86 88 89 90 91 92 93 93 94 95 96 97 97 98 99 100 101 101 102 103 105 106 108 108 108 108 107 106 104 102 100 98 96 93 91 89 87 85 84 83 82 81 80 77 73 68 64 60 58 57 56 55 53 52 51 51 50 50 49 48 47 47 47 46 46 45 45 44 44 45 45 45 46 47 47 48 49
79 80 81 82 82 83 84 85 86 87 89 90 91 92 93 94 94 95 96 96 97 98 99 100 100 101 101 102 103 105 106 107 107 107 106 105 104 102 100 98 96 94 91 89 87 85 83 82 80 80 79 78 75 72 67 62 59 56 55 54 53 51 50 49 49 49 48 47 46 46 45 45 44 44 43 43 43 43 43 44 44 45 45 46 46 47
81 82 83 83 84 85 85 86 87 89 90 91 92 93 94 94 95 96 96 97 97 98 99 100 100 101 101 102 103 104 106 106 106 106 104 103 102 100 98 96 94 92 89 87 85 83 81 79 78 77 76 75 73 70 66 61 57 55 54 52 51 49 48 48 47 47 47 46 45 44 43 43 42 42 42 42 42 42 42 42 43 43 44 44 45 46
82 83 84 85 85 86 87 87 88 89 90 91 92 93 94 95 95 96 97 97 98 98 99 99 100 101 101 102 103 104 105 106 105 104 103 101 99 98 96 94 92 90 87 85 83 81 79 77 76 74 73 72 71 68 64 60 56 54 52 51 49 48 46 46 46 46 45 44 43 42 41 41 41 41 40 40 40 40 41 41 41 42 42 43 44 45
83 84 85 86 86 87 88 89 89 90 91 92 93 94 94 95 96 96 97 98 98 98 99 99 100 100 101 102 103 104 105 105 104 103 101 99 98 96 94 92 90 88 86 83 81 79 77 75 74 72 71 70 68 66 63 59 56 53 51 49 48 46 44 44 44 44 44 43 42 40 39 39 39 39 39 39 39 39 39 40 40 40 41 41 42 43
84 85 86 86 87 88 89 89 90 91 91 92 93 93 94 95 96 96 97 98 98 99 99 99 100 100 101 101 103 104 104 104 103 102 100 98 96 94 92 90 88 86 84 82 79 77 75 73 72 70 69 68 67 64 61 58 55 52 50 48 46 44 43 42 42 42 42 41 40 39 38 37 37 37 37 38 38 38 38 38 39 39 39 40 40 41
85 86 86 87 87 88 89 89 90 91 91 92 93 93 94 95 96 96 97 97 98 99 99 100 100 100 101 102 102 103 103 103 102 100 98 96 94 92 90 88 86 84 82 80 78 76 74 71 69 68 67 66 65 63 60 57 54 52 50 48 45 43 41 40 40 40 40 40 38 37 36 36 36 36 36 36 36 36 37 37 37 37 37 38 39 40
85 86 87 87 88 88 89 89 90 90 91 92 92 93 94 94 95 96 97 97 98 98 99 100 100 101 102 102 103 103 103 102 100 99 97 95 93 91 89 87 85 83 81 79 77 74 72 70 68 66 65 64 63 62 60 57 54 51 49 48 45 43 40 38 38 38 38 38 37 36 35 34 34 34 35 35 35 35 35 35 35 35 36 36 37 38
85 86 87 87 87 88 88 89 89 90 90 91 92 92 93 94 94 95 96 96 97 97 98 99 100 101 102 103 103 103 102 101 99 98 96 94 92 89 87 85 84 82 80 77 75 73 70 68 66 64 63 62 61 60 58 56 53 51 49 47 45 43 40 38 37 36 36 36 35 34 33 33 33 33 33 33 33 33 33 34 34 34 34 34 35 36
85 86 86 87 87 87 88 88 88 89 90 90 91 91 92 93 93 94 95 95 96 96 97 98 99 100 101 102 103 102 102 100 98 97 95 93 91 89 86 84 83 81 79 77 74 72 69 66 64 62 60 60 59 58 57 55 53 50 48 46 45 43 40 37 36 35 34 34 33 33 32 32 32 32 32 32 32 32 32 32 32 32 32 33 34 35
85 86 86 87 87 87 87 87 88 88 89 89 89 90 91 91 92 93 94 94 95 95 96 97 98 100 101 102 102 102 101 99 97 96 94 92 90 88 85 83 81 80 78 76 73 71 68 65 62 60 58 57 56 56 55 54 52 49 47 45 44 42 40 37 35 34 33 32 32 31 30 30 30 30 30 30 30 30 30 30 30 30 31 32 33 34
84 85 86 86 86 87 87 87 87 87 88 88 88 89 89 90 91 92 92 93 94 95 95 96 98 99 100 101 101 101 100 98 96 95 93 91 89 87 85 83 81 79 77 75 72 69 66 63 61 58 57 55 54 53 52 51 50 48 46 44 42 40 39 37 34 33 31 31 30 29 29 29 29 29 29 29 29 29 29 29 29 29 30 31 32 34
84 85 86 86 86 86 86 86 86 86 86 87 87 87 88 89 89 90 91 92 93 93 94 95 96 98 99 100 100 100 99 97 95 94 92 90 88 86 84 82 80 78 76 74 72 69 65 62 59 57 56 54 53 51 50 49 48 47 45 43 41 39 37 35 34 32 30 29 28 28 28 28 28 28 28 28 27 27 27 27 28 28 29 30 32 33
84 85 85 86 86 86 86 86 85 85 85 85 86 86 87 88 88 89 90 91 91 92 93 94 95 96 97 98 99 99 98 96 95 93 91 89 87 85 83 81 79 77 76 74 71 68 64 61 58 56 54 53 52 50 48 47 46 45 44 42 40 38 36 34 32 31 29 28 27 26 26 26 26 26 26 26 26 26 26 26 27 28 29 30 31 33
83 84 85 85 85 85 85 85 84 84 84 84 85 85 86 87 88 88 89 90 91 92 93 93 94 95 96 97 97 97 96 95 94 92 90 88 86 84 82 80 78 77 75 73 71 68 64 61 57 55 53 52 51 49 47 45 44 43 42 40 39 37 35 33 31 29 28 26 25 25 25 25 25 25 25 25 25 25 25 26 26 27 28 29 31 32
83 83 84 85 85 84 84 84 83 83 83 84 84 85 85 86 87 87 88 89 90 91 92 93 94 94 95 96 95 95 94 94 92 91 89 87 85 83 81 79 78 76 75 73 71 68 64 60 57 54 52 51 49 48 46 44 42 41 40 38 37 35 33 31 30 28 27 25 24 23 23 23 23 23 24 24 24 24 24 25 26 27 28 29 30 32
82 83 83 84 84 84 83 83 83 82 82 83 83 84 85 85 86 87 88 88 89 90 91 92 93 93 94 94 94 93 92 92 91 90 88 86 84 82 80 79 77 76 74 73 71 68 65 61 57 54 52 51 49 48 46 43 41 40 38 37 35 34 32 30 28 27 25 24 23 22 22 22 22 22 22 23 23 23 24 24 25 26 27 28 30 31
81 82 82 83 83 83 83 82 82 82 82 82 83 84 84 85 85 86 87 88 89 90 90 91 92 93 93 93 92 91 90 90 89 88 87 85 83 81 79 78 76 75 74 72 71 68 66 62 58 55 53 51 49 48 46 44 42 39 37 36 34 32 31 29 27 26 24 23 22 21 21 20 20 21 21 22 22 23 23 24 25 26 27 28 29 31
80 80 81 81 82 82 82 82 81 81 81 82 82 83 84 84 85 85 86 87 88 89 90 91 91 92 92 92 91 90 89 88 87 86 85 83 82 80 78 76 75 74 72 71 70 68 66 62 59 56 53 51 49 48 46 44 42 40 37 35 33 31 30 28 26 25 23 22 21 20 20 19 19 20 20 21 21 22 22 23 24 25 27 28 29 31
79 79 80 80 81 81 81 81 80 80 80 81 82 82 83 84 84 85 86 86 87 88 89 90 90 91 91 90 90 89 88 87 86 85 84 82 80 78 76 75 73 72 71 69 68 67 65 62 59 56 53 51 49 47 45 43 41 39 37 35 33 30 29 27 25 24 23 21 20 19 19 19 18 19 19 19 20 21 22 23 24 25 26 28 29 31
78 78 79 79 80 80 80 80 80 79 79 80 81 82 82 83 84 85 85 86 87 87 88 89 89 90 89 89 89 88 87 86 85 84 83 81 79 77 75 73 71 69 68 67 66 65 63 62 60 56 53 50 47 46 44 43 40 38 36 34 32 30 28 26 25 23 22 21 20 19 18 18 18 18 18 19 19 20 21 22 23 25 26 28 29 31
Wind_Direction
290 291 291 292 292 293 293 294 294 295 295 295 295 295 295 295 294 294 294 294 294 294 294 295 295 295 295 295 295 295 295 295 295 295 295 295 295 295 295 295 295 294 294 294 293 293 293 292 292 292 291 291 291 290 290 289 289 289 288 288 287 287 286 286 286 285 284 284 283 282 281 280 279 278 277 276 274 273 272 271 270 269 268 267 266 264
290 291 291 292 293 293 294 294 294 295 295 295 295 295 295 295 294 294 294 294 294 294 295 295 295 295 295 295 295 295 295 295 295 295 296 296 296 296 295 295 295 295 295 294 294 294 293 293 293 293 292 292 292 291 291 290 290 289 289 288 288 287 287 287 286 286 285 285 284 283 282 282 281 279 278 277 276 274 273 271 270 268 267 266 265 264
290 291 292 292 293 293 294 294 294 294 294 295 295 295 295 295 295 295 295 295 295 295 295 295 295 295 295 295 295 295 295 296 296 296 296 296 296 296 296 296 295 295 295 295 295 294 294 294 294 294 293 293 293 292 292 291 291 290 290 289 289 288 288 287 287 286 286 285 284 284 283 282 281 280 279 278 277 275 274 272 270 269 267 266 264 263
291 291 292 293 293 293 294 294 294 294 294 294 294 294 294 294 295 295 295 295 295 295 295 295 295 295 295 296 296 296 296 296 297 297 297 297 297 296 296 296 296 296 296 296 295 295 295 295 295 294 294 294 294 293 293 292 292 291 291 290 290 289 289 288 288 287 286 286 285 284 283 282 281 280 279 278 277 276 274 273 271 269 267 266 264 263
291 292 292 293 293 294 294 294 294 294 294 294 294 294 294 294 294 295 295 295 295 295 295 295 296 296 296 296 296 297 297 297 297 297 297 297 297 297 297 297 297 296 296 296 296 296 296 296 295 295 295 294 294 294 293 293 292 292 292 291 291 290 290 289 289 288 287 286 285 284 283 282 281 280 279 278 277 276 274 273 271 270 268 266 264 262
291 292 293 293 293 294 294 294 294 294 294 294 294 294 294 294 294 295 295 295 295 295 296 296 296 296 297 297 297 297 297 298 298 298 298 297 297 297 297 297 297 297 297 297 297 297 297 296 296 296 295 295 295 294 294 294 293 293 292 292 292 291 291 290 289 289 288 287 286 285 284 282 281 280 279 278 276 275 274 273 271 269 268 266 264 262
292 292 293 293 293 294 294 294 294 294 294 294 294 294 294 294 295 295 295 295 296 296 296 296 297 297 297 297 297 298 298 298 298 298 298 298 298 298 298 298 298 298 298 298 298 297 297 297 297 296 296 296 295 295 295 294 294 294 293 293 293 292 292 291 290 290 289 288 286 285 284 282 281 280 278 277 276 274 273 272 270 269 267 265 263 261
292 292 293 293 293 293 294 294 294 294 294 294 294 294 294 295 295 295 295 296 296 296 297 297 297 297 297 297 298 298 298 298 298 298 298 298 298 298 298 298 298 298 298 298 298 298 298 298 297 297 297 296 296 296 295 295 295 294 294 294 293 293 292 292 291 290 289 288 287 285 284 282 281 279 278 276 275 274 272 271 269 268 266 265 263 261
292 293 293 293 293 293 293 293 293 293 294 294 294 294 295 295 295 296 296 296 296 297 297 297 297 297 297 297 298 298 298 298 298 298 298 299 299 299 299 299 299 299 299 299 299 299 299 298 298 298 297 297 297 296 296 296 296 295 295 294 294 293 293 292 291 290 289 288 286 285 284 282 280 279 277 276 274 272 271 269 268 266 265 263 261 260
292 292 293 293 293 293 293 293 293 293 294 294 294 294 295 295 296 296 296 296 297 297 297 297 297 297 297 298 298 298 298 299 299 299 299 299 299 299 299 300 300 300 300 300 300 299 299 299 299 298 298 297 297 297 297 296 296 296 295 295 294 294 293 292 291 290 289 288 286 285 283 282 280 278 277 275 273 271 270 268 266 265 263 262 260 258
292 292 292 292 293 293 293 293 293 293 294 294 294 295 295 295 295 296 296 296 297 297 297 297 297 297 298 298 298 298 299 299 299 299 299 300 300 300 300 300 300 300 300 300 300 300 300 299 299 298 298 298 297 297 297 297 296 296 296 295 294 294 293 292 291 290 288 287 286 284 283 281 280 278 276 274 272 270 268 267 265 263 262 260 258 257
292 292 292 292 292 292 292 293 293 293 294 294 295 295 295 295 295 296 296 297 297 297 297 297 298 298 298 298 298 299 299 300 300 300 300 300 300 300 301 301 301 301 301 301 301 300 300 300 299 299 298 298 298 297 297 297 297 296 296 295 295 294 293 292 291 289 288 287 285 284 282 281 279 277 275 274 272 270 268 266 264 262 260 259 257 255
291 291 292 292 292 292 292 293 293 294 294 294 295 295 295 296 296 296 297 297 297 297 298 298 298 298 298 298 299 299 300 300 300 301 301 301 301 301 301 302 302 302 302 302 301 301 300 300 299 299 298 298 298 298 297 297 297 297 296 296 295 294 293 292 291 289 288 287 285 284 282 280 279 277 275 273 271 269 267 265 263 261 259 258 256 254
291 291 291 292 292 292 292 293 294 294 294 295 295 295 296 296 296 297 297 297 297 298 298 298 298 298 299 299 299 300 300 301 301 301 301 301 302 302 302 302 302 302 302 302 302 301 300 300 299 299 298 298 298 298 298 298 297 297 296 296 295 294 293 292 291 290 288 287 285 284 282 280 278 276 275 273 271 269 267 265 263 261 259 257 255 253
291 291 291 292 292 292 293 293 294 294 295 295 295 296 296 297 297 297 298 298 298 298 298 299 299 299 299 300 300 301 301 301 302 302 302 302 302 303 303 303 303 303 303 302 302 301 301 300 300 299 299 299 298 298 298 298 298 297 297 296 295 294 293 292 291 290 289 287 286 284 282 280 278 276 274 273 271 269 267 265 262 260 258 256 254 252
291 291 292 292 292 293 293 294 294 295 295 295 296 296 297 297 298 298 298 298 299 299 299 299 299 300 300 300 301 301 302 302 303 303 303 303 303 303 304 304 304 303 303 303 302 302 301 300 300 300 299 299 299 299 299 298 298 297 297 296 295 295 294 293 291 290 289 288 286 284 282 280 278 276 274 272 270 268 266 264 262 259 257 255 253 251
291 292 292 292 293 293 294 294 294 295 295 296 296 297 297 298 298 299 299 299 299 299 300 300 300 300 301 301 302 302 303 303 303 304 304 304 304 304 304 304 304 304 304 303 303 302 302 301 301 300 300 300 300 300 299 299 298 298 297 296 295 295 294 293 292 290 289 288 286 284 282 280 278 276 274 272 270 268 266 264 262 259 257 254 252 250
291 292 292 292 293 293 294 294 295 295 296 297 297 298 298 298 299 299 299 300 300 300 300 300 301 301 301 302 302 303 303 304 304 304 305 304 304 305 305 305 305 304 304 304 303 303 302 302 301 301 301 301 301 300 300 299 299 298 297 296 295 294 293 292 291 290 289 288 286 284 282 280 278 276 274 272 270 268 266 264 262 259 257 254 251 249
291 292 292 293 293 293 294 294 295 296 297 297 298 298 299 299 299 300 300 300 300 301 301 301 301 302 302 302 303 303 304 304 305 305 305 305 305 305 305 305 305 305 305 304 304 304 303 303 302 302 302 302 301 301 301 300 299 298 297 296 295 294 293 292 291 290 289 287 285 284 282 280 278 276 274 273 271 269 267 264 262 259 256 253 251 248
291 292 292 292 293 294 294 295 296 296 297 298 298 299 299 299 300 300 300 301 301 301 301 302 302 302 303 303 303 304 305 305 305 306 305 305 305 306 306 306 306 306 306 305 305 304 304 304 303 303 303 302 302 302 301 301 300 299 298 296 295 294 293 292 291 290 288 287 285 283 281 280 278 276 274 273 271 269 267 264 262 259 256 253 250 247
291 292 292 293 293 294 294 295 296 297 298 298 299 299 299 300 300 300 301 301 302 302 302 302 303 303 303 304 304 305 305 306 306 306 306 306 306 306 307 307 307 307 307 306 306 305 305 304 304 304 303 303 303 302 302 301 300 299 298 297 295 294 293 292 290 289 288 286 284 283 281 279 278 276 274 273 271 269 266 264 261 258 255 252 250 247
291 291 292 293 293 294 295 296 297 297 298 299 299 299 300 300 300 301 301 302 302 303 303 303 304 304 304 305 305 305 306 306 306 307 307 307 307 307 308 308 308 308 308 307 306 306 305 305 305 304 304 304 303 303 302 302 301 300 298 297 296 294 293 292 290 289 287 285 284 282 280 279 277 276 274 273 271 268 266 263 261 258 255 252 249 246
291 291 292 293 293 294 295 296 297 298 298 299 299 300 300 300 301 301 302 302 303 303 304 304 304 304 305 305 305 306 306 307 307 307 308 308 308 308 309 309 309 309 308 308 307 307 306 306 306 305 305 304 304 304 303 302 301 300 299 298 296 295 293 292 290 288 287 285 283 282 280 279 277 276 274 272 270 268 265 263 260 257 254 251 249 246
291 291 292 293 294 295 296 297 297 298 299 299 300 300 301 301 301 302 302 303 303 304 304 304 304 305 305 305 306 306 307 307 308 308 309 309 309 310 310 310 310 310 309 309 308 308 307 307 307 306 306 305 305 304 304 303 302 301 299 298 297 295 293 292 290 288 286 285 283 281 280 278 277 276 274 272 270 267 265 262 259 257 254 251 248 246
291 292 293 293 294 295 296 297 298 299 299 300 300 301 301 301 302 302 303 303 304 304 304 304 305 305 305 306 306 307 308 308 309 310 310 310 311 311 311 311 311 311 310 310 309 309 308 308 307 307 306 306 306 305 305 304 303 302 300 299 297 295 294 292 290 288 286 284 283 281 280 278 277 275 274 272 269 267 264 261 259 256 254 251 248 245
292 292 293 294 295 296 297 298 298 299 300 300 301 301 302 302 302 303 303 304 304 304 305 305 305 305 306 306 307 308 309 310 310 311 311 312 312 312 312 312 312 312 311 311 310 310 309 309 308 308 307 307 306 306 305 305 304 302 301 299 297 296 294 292 290 288 286 284 283 281 279 278 277 275 273 271 269 266 264 261 258 256 253 251 248 245
292 293 294 295 296 297 298 298 299 300 300 301 301 302 302 303 303 304 304 304 305 305 305 305 306 306 307 307 308 309 310 311 311 312 312 313 313 313 313 313 313 313 312 312 311 311 310 310 309 309 308 308 307 307 306 306 304 303 301 300 298 296 294 292 290 288 286 284 283 281 279 278 276 275 273 270 268 265 263 260 258 255 253 250 248 245
293 294 295 296 297 298 298 299 300 300 301 301 302 302 303 303 304 304 305 305 305 305 305 306 306 307 308 308 309 310 311 312 312 313 314 314 314 314 314 314 314 313 313 312 312 312 311 311 311 310 309 308 308 308 307 306 305 304 302 300 298 296 295 293 291 289 287 285 283 281 279 278 276 274 272 270 267 265 262 260 257 255 252 250 247 245
293 294 295 296 297 298 299 300 300 301 302 302 303 303 304 304 304 305 305 305 305 306 306 306 307 308 308 309 310 311 312 312 313 314 314 315 315 315 315 315 314 314 313 313 313 313 312 312 312 311 310 309 309 308 308 307 306 305 303 301 299 297 295 293 291 289 287 285 283 281 279 278 276 274 272 269 267 264 262 259 257 254 252 249 247 244
294 295 296 297 298 299 300 300 301 302 302 303 303 304 304 305 305 305 305 305 306 306 306 307 308 308 309 310 311 312 312 313 314 315 315 316 316 316 315 315 315 314 314 314 314 314 313 313 313 312 311 310 309 309 309 308 307 305 303 302 300 298 296 294 292 289 287 285 283 281 279 278 276 274 271 269 266 263 261 258 256 254 251 249 246 244
296 296 297 298 299 300 300 301 302 302 303 304 304 304 305 305 305 305 306 306 306 307 307 308 308 309 310 311 312 312 313 314 315 316 316 316 316 316 316 316 315 315 315 315 315 315 315 314 314 313 312 311 310 309 309 309 308 306 304 302 300 299 297 295 292 290 287 285 283 281 279 278 276 273 271 268 265 263 260 258 255 253 251 248 246 243
297 297 298 299 300 300 301 302 302 303 304 304 305 305 305 305 306 306 306 307 307 307 308 308 309 310 311 312 312 313 314 315 316 316 317 317 317 317 317 316 316 316 316 316 316 316 316 316 315 314 312 311 310 310 310 310 309 307 305 303 301 300 298 295 293 290 288 286 284 282 279 277 275 273 271 268 265 262 259 257 254 252 250 247 245 242
297 298 299 300 300 301 302 303 303 304 304 305 305 306 306 306 306 307 307 307 308 308 308 309 310 311 312 312 313 314 315 316 316 317 317 317 317 317 317 317 317 317 317 317 317 317 317 317 316 315 313 312 311 310 310 310 310 308 306 304 302 300 299 296 294 291 289 286 284 282 280 277 275 272 270 267 264 262 259 256 254 251 249 246 244 241
298 299 300 300 301 302 303 303 304 305 305 306 306 306 306 307 307 307 307 308 308 308 309 310 311 311 312 313 314 315 316 316 317 317 318 318 318 318 318 318 318 318 318 318 318 318 318 317 317 315 314 312 311 311 311 311 311 309 307 305 303 301 300 297 295 292 289 287 285 283 280 277 275 272 269 266 264 261 258 255 253 250 248 245 243 240
299 299 300 301 302 303 303 304 305 305 306 306 307 307 307 307 308 308 308 308 309 309 310 311 311 312 313 314 315 316 316 317 318 318 319 319 319 319 319 319 319 319 319 319 319 319 319 319 318 316 315 313 312 311 312 312 312 310 308 306 304 302 301 298 296 293 290 288 286 283 280 277 274 271 269 266 263 260 257 255 252 250 247 244 242 239
299 300 301 302 303 303 304 305 305 306 307 307 307 307 308 308 308 308 308 309 309 310 311 311 312 313 314 315 316 317 317 318 319 319 320 320 320 320 320 320 320 320 320 320 320 320 320 320 319 317 316 314 313 312 312 313 313 312 310 307 305 303 301 299 296 293 291 288 286 284 280 277 274 271 268 265 262 259 257 254 251 249 246 244 241 238
300 301 302 302 303 304 305 306 306 307 307 308 308 308 308 308 309 309 309 310 310 311 311 312 313 314 315 316 317 318 318 319 319 320 320 321 321 321 321 321 321 321 321 321 321 321 321 321 320 318 317 315 314 314 314 314 314 313 311 309 307 305 303 300 297 294 291 289 287 284 281 277 274 270 267 264 262 259 256 253 251 248 246 243 240 237
301 301 302 303 304 305 306 306 307 307 308 308 309 309 309 309 309 309 310 310 311 312 312 313 314 315 316 317 318 319 319 320 320 321 321 322 322 322 322 322 322 322 322 322 322 322 322 322 321 319 318 316 315 315 315 315 315 314 313 311 308 306 304 301 298 295 292 290 287 284 281 277 273 270 267 264 261 258 255 253 250 247 245 242 239 236
301 302 303 304 305 306 306 307 308 308 308 309 309 309 309 309 310 310 310 311 311 312 313 314 315 316 317 318 319 320 320 321 321 322 322 323 323 323 323 323 323 323 323 323 323 323 323 323 322 320 319 318 316 316 316 316 316 315 314 312 310 308 305 303 300 296 293 290 287 285 281 277 273 270 266 263 260 258 255 252 249 246 243 240 237 234
302 303 304 304 305 306 307 308 308 309 309 309 309 309 310 310 310 310 311 311 312 313 314 315 316 317 318 319 320 321 321 322 322 323 323 324 324 324 324 324 324 324 324 324 324 324 324 323 322 321 319 318 317 317 316 316 316 315 314 313 311 309 307 304 301 297 294 291 288 285 281 277 273 269 266 263 260 257 254 251 248 245 241 238 235 232
303 304 304 305 306 307 308 308 309 309 309 309 309 310 310 310 310 311 311 312 313 314 315 316 317 318 319 320 321 321 322 323 323 324 324 325 325 325 325 325 325 324 324 324 324 324 324 324 323 321 320 319 318 317 317 317 316 316 315 313 312 310 308 305 302 299 295 292 289 285 282 277 273 269 266 262 259 256 253 249 246 242 239 235 232 230
304 305 305 306 307 308 308 309 309 309 309 310 310 310 310 310 311 311 312 313 314 315 316 317 318 319 320 321 322 322 323 323 324 324 325 326 326 326 326 326 325 325 325 325 325 325 325 324 323 322 321 320 319 318 318 317 316 316 315 313 312 310 308 306 303 300 296 293 289 286 282 278 273 269 265 262 258 255 251 247 244 240 236 233 230 227
305 305 306 307 307 308 309 309 309 309 310 310 310 310 310 311 311 312 313 314 315 316 317 318 319 320 321 322 323 323 323 324 325 325 326 326 327 327 327 327 326 326 326 326 325 325 325 325 324 323 322 321 320 319 319 318 317 316 315 314 312 311 309 306 304 301 297 294 290 286 282 278 273 269 265 261 257 254 250 245 241 237 233 230 227 224
305 306 306 307 308 308 309 309 310 310 310 310 310 311 311 311 312 313 314 315 316 317 318 319 320 321 322 323 324 324 324 325 325 326 326 327 327 328 328 327 327 327 326 326 326 326 326 326 325 325 324 323 321 321 320 319 318 317 315 314 313 311 309 307 305 302 298 295 291 286 282 278 274 269 265 261 256 252 247 243 239 235 231 228 225 222
306 306 307 307 308 309 309 309 310 310 311 311 311 311 312 312 313 314 315 316 317 318 319 320 322 323 323 324 324 325 325 325 326 326 327 328 328 328 328 328 328 328 327 327 327 326 327 326 326 326 325 324 323 322 321 320 319 318 316 315 314 312 310 308 305 302 299 295 291 287 282 278 273 269 264 260 255 250 245 241 236 232 229 225 222 220
306 307 307 308 308 309 309 310 310 311 311 312 312 312 313 313 314 315 316 317 318 319 320 322 323 324 324 325 325 325 325 326 326 327 328 328 329 329 329 329 329 328 328 328 327 327 327 327 327 327 326 325 324 323 322 321 321 319 318 316 315 313 311 309 306 304 300 296 292 287 282 278 273 268 263 258 253 248 243 238 234 230 226 223 220 218
306 307 307 308 308 309 310 310 311 312 312 312 313 313 314 315 315 316 317 318 319 321 322 323 323 324 325 325 325 326 326 326 327 328 328 329 330 330 330 330 330 330 329 328 328 328 328 328 328 328 328 327 326 325 324 323 322 321 319 318 316 314 312 310 308 305 302 298 293 288 283 277 272 267 262 257 252 246 241 236 232 227 224 221 218 216
306 307 308 308 309 309 310 311 312 312 313 314 314 314 315 316 317 318 319 320 321 322 323 323 324 325 325 325 326 326 327 327 328 329 329 330 330 331 331 331 331 331 330 329 329 328 328 328 329 329 329 329 328 327 326 325 324 323 322 320 318 316 314 312 309 306 303 299 294 289 283 277 272 266 261 256 250 245 239 234 229 225 221 218 215 213
306 307 308 308 309 310 310 311 312 313 314 315 315 316 316 317 318 319 320 321 322 323 323 324 325 325 326 326 326 327 327 328 328 329 330 330 331 331 332 332 332 331 331 330 329 329 328 328 329 330 330 330 329 328 328 327 326 325 323 322 320 318 316 314 311 308 305 300 295 289 283 277 271 265 259 254 248 243 237 232 227 223 219 215 212 210
306 307 308 309 309 310 311 312 313 314 315 316 316 317 317 318 319 320 321 322 322 323 324 324 325 326 326 326 327 327 328 328 329 330 330 331 331 332 332 332 332 332 331 331 330 329 329 328 329 329 330 330 330 329 328 328 327 326 325 323 322 320 318 316 313 310 306 302 296 290 284 277 271 264 257 252 246 241 236 230 225 221 216 213 210 207
307 308 308 309 310 311 312 313 314 315 316 317 317 318 318 319 320 321 321 322 323 323 324 325 326 326 327 327 327 328 328 329 330 330 331 331 332 332 333 333 333 332 332 331 330 330 329 329 328 329 329 330 330 330 330 329 328 327 326 325 323 322 320 318 315 312 308 303 297 291 284 277 270 263 256 250 244 239 234 229 224 219 214 211 207 205
Height
10537 10535 10533 10531 10528 10526 10523 10522 10520 10517 10513 10511 10508 10505 10502 10499 10496 10493 10490 10487 10483 10480 10477 10473 10471 10468 10465 10462 10459 10457 10454 10451 10448 10446 10443 10441 10438 10435 10433 10430 10427 10424 10421 10418 10415 10412 10410 10408 10405 10403 10401 10399 10397 10395 10393 10390 10388 10386 10383 10381 10379 10377 10375 10373 10371 10370 10368 10367 10367 10366 10366 10366 10367 10367 10368 10369 10370 10372 10373 10374 10375 10377 10379 10382 10384 10387
10532 10530 10527 10525 10523 10521 10518 10516 10514 10512 10508 10504 10501 10498 10495 10492 10488 10485 10482 10479 10476 10473 10470 10467 10464 10461 10458 10455 10452 10450 10447 10444 10441 10438 10436 10433 10430 10427 10424 10421 10418 10415 10411 10408 10405 10402 10399 10397 10394 10392 10390 10387 10385 10383 10381 10378 10377 10374 10372 10370 10368 10365 10363 10362 10360 10358 10357 10355 10354 10353 10352 10352 10352 10352 10353 10354 10355 10357 10359 10361 10363 10365 10367 10370 10372 10375
10527 10524 10522 10520 10518 10515 10512 10510 10508 10505 10502 10498 10495 10492 10488 10485 10481 10478 10475 10472 10468 10466 10463 10460 10457 10454 10451 10448 10445 10442 10439 10437 10433 10431 10428 10425 10422 10418 10415 10412 10408 10405 10402 10398 10395 10392 10388 10385 10383 10380 10378 10375 10373 10370 10368 10366 10363 10362 10359 10357 10355 10353 10351 10349 10347 10346 10344 10343 10342 10340 10339 10338 10338 10338 10338 10339 10340 10342 10343 10346 10348 10352 10354 10357 10360 10362
10521 10518 10516 10514 10512 10510 10507 10504 10502 10498 10496 10492 10488 10485 10482 10478 10475 10471 10468 10465 10462 10458 10455 10453 10450 10447 10444 10441 10438 10435 10432 10429 10426 10423 10420 10417 10413 10410 10407 10403 10399 10395 10392 10388 10385 10381 10378 10375 10372 10369 10366 10363 10361 10358 10355 10353 10350 10348 10346 10344 10342 10340 10338 10336 10335 10333 10331 10330 10328 10327 10326 10325 10325 10324 10324 10324 10325 10326 10328 10330 10333 10336 10340 10343 10346 10349
10515 10513 10510 10508 10505 10503 10500 10498 10495 10492 10489 10486 10482 10479 10475 10472 10469 10465 10462 10458 10455 10452 10449 10446 10443 10440 10437 10433 10430 10428 10425 10422 10418 10415 10412 10408 10405 10401 10397 10394 10390 10386 10382 10378 10375 10371 10367 10363 10361 10358 10355 10352 10349 10346 10343 10340 10338 10335 10333 10330 10328 10326 10324 10322 10321 10319 10318 10316 10315 10313 10313 10312 10311 10310 10310 10310 10310 10311 10313 10315 10317 10320 10323 10327 10331 10335
10509 10507 10505 10502 10500 10497 10494 10492 10489 10486 10483 10479 10476 10473 10470 10467 10463 10460 10456 10453 10449 10446 10443 10439 10436 10433 10430 10427 10423 10421 10418 10415 10411 10408 10404 10400 10396 10392 10388 10385 10381 10377 10373 10368 10365 10360 10357 10353 10350 10347 10343 10340 10337 10333 10330 10328 10325 10322 10320 10317 10315 10313 10310 10308 10307 10305 10303 10302 10301 10300 10298 10298 10297 10296 10295 10295 10296 10297 10298 10300 10302 10304 10307 10311 10315 10320
10503 10502 10500 10497 10493 10491 10488 10485 10483 10480 10477 10473 10470 10467 10463 10460 10458 10454 10450 10447 10443 10440 10437 10433 10429 10426 10423 10420 10417 10414 10411 10408 10404 10400 10396 10392 10388 10384 10380 10375 10372 10367 10363 10359 10355 10350 10346 10342 10338 10335 10331 10327 10324 10321 10318 10315 10312 10309 10307 10304 10302 10299 10297 10295 10293 10291 10289 10287 10286 10285 10284 10283 10283 10282 10281 10281 10282 10282 10283 10285 10287 10289 10292 10295 10299 10304
10497 10495 10493 10491 10488 10485 10482 10479 10477 10474 10471 10467 10464 10460 10457 10454 10452 10448 10445 10441 10438 10434 10431 10427 10423 10419 10417 10413 10411 10407 10404 10401 10397 10393 10388 10383 10380 10375 10372 10367 10363 10358 10353 10349 10345 10340 10335 10331 10327 10323 10318 10315 10311 10307 10304 10301 10298 10296 10293 10290 10288 10286 10283 10281 10279 10277 10275 10273 10272 10270 10270 10269 10268 10268 10267 10267 10268 10268 10269 10270 10272 10274 10277 10280 10283 10288
10492 10489 10487 10485 10482 10479 10475 10472 10470 10468 10465 10462 10459 10455 10452 10448 10445 10442 10438 10435 10432 10428 10425 10421 10417 10412 10409 10407 10405 10402 10398 10394 10390 10386 10381 10376 10371 10367 10363 10358 10354 10350 10345 10340 10335 10330 10325 10320 10315 10311 10307 10302 10298 10294 10291 10288 10285 10282 10280 10277 10275 10272 10270 10268 10265 10263 10261 10259 10258 10256 10255 10254 10253 10253 10253 10253 10254 10254 10255 10256 10258 10260 10262 10265 10268 10272
10487 10484 10481 10478 10476 10474 10470 10467 10463 10461 10460 10457 10453 10450 10448 10444 10440 10436 10432 10428 10425 10422 10419 10416 10412 10407 10403 10400 10397 10395 10392 10387 10382 10378 10373 10368 10363 10358 10354 10350 10345 10341 10335 10330 10325 10319 10314 10309 10304 10299 10295 10290 10285 10281 10278 10275 10272 10268 10266 10264 10262 10259 10257 10255 10252 10250 10248 10246 10244 10243 10241 10240 10239 10239 10239 10240 10240 10240 10241 10242 10243 10245 10248 10250 10253 10257
10481 10478 10476 10473 10470 10468 10465 10462 10458 10455 10453 10451 10448 10445 10442 10440 10437 10432 10427 10423 10419 10416 10413 10409 10405 10402 10398 10393 10390 10388 10385 10381 10376 10370 10365 10360 10355 10350 10346 10342 10337 10332 10327 10320 10315 10309 10304 10298 10293 10287 10283 10278 10273 10269 10265 10262 10258 10256 10253 10251 10248 10246 10243 10242 10239 10237 10235 10233 10231 10229 10228 10227 10226 10225 10225 10225 10225 10226 10227 10228 10230 10232 10234 10237 10240 10243
10475 10473 10470 10467 10464 10462 10459 10456 10453 10451 10448 10445 10442 10438 10435 10433 10431 10428 10423 10418 10414 10410 10406 10402 10398 10395 10392 10388 10385 10381 10378 10373 10368 10363 10357 10352 10347 10342 10338 10333 10328 10323 10318 10312 10305 10299 10293 10288 10282 10276 10271 10267 10262 10258 10253 10250 10247 10243 10240 10238 10235 10233 10230 10228 10226 10223 10222 10220 10218 10216 10215 10213 10212 10212 10211 10212 10212 10213 10213 10215 10217 10219 10222 10224 10227 10230
10470 10467 10465 10462 10458 10456 10453 10450 10448 10445 10442 10440 10437 10433 10428 10426 10423 10421 10418 10413 10409 10405 10401 10397 10391 10387 10384 10382 10379 10375 10372 10367 10361 10355 10350 10343 10338 10334 10330 10325 10320 10314 10309 10302 10295 10289 10283 10278 10272 10266 10260 10255 10251 10247 10242 10238 10235 10232 10228 10225 10222 10220 10217 10215 10213 10210 10208 10207 10205 10203 10202 10201 10200 10198 10198 10198 10199 10200 10201 10203 10205 10207 10209 10212 10214 10217
10464 10462 10458 10456 10453 10450 10448 10445 10442 10439 10436 10433 10430 10427 10423 10420 10417 10414 10411 10407 10403 10400 10396 10391 10385 10380 10377 10374 10372 10368 10365 10360 10355 10348 10342 10335 10330 10326 10322 10317 10310 10305 10299 10293 10287 10279 10273 10268 10262 10256 10250 10245 10240 10237 10232 10228 10224 10220 10217 10213 10210 10207 10204 10202 10200 10198 10196 10194 10193 10191 10190 10188 10187 10186 10186 10186 10187 10187 10189 10191 10193 10195 10197 10200 10202 10205
10458 10455 10452 10450 10447 10444 10442 10440 10437 10433 10430 10427 10424 10421 10417 10413 10411 10408 10405 10400 10396 10392 10389 10385 10379 10373 10369 10367 10365 10362 10357 10352 10347 10342 10335 10327 10320 10316 10313 10309 10302 10295 10289 10284 10277 10270 10262 10257 10251 10245 10240 10235 10230 10227 10222 10218 10214 10210 10205 10202 10198 10195 10192 10189 10187 10185 10183 10182 10180 10178 10177 10176 10175 10174 10174 10174 10175 10175 10177 10178 10180 10183 10185 10188 10190 10193
10452 10450 10447 10443 10440 10438 10436 10433 10431 10428 10424 10421 10418 10415 10412 10408 10404 10401 10398 10394 10390 10386 10382 10378 10373 10367 10361 10357 10356 10355 10352 10345 10339 10333 10328 10320 10312 10307 10303 10300 10294 10286 10279 10273 10267 10260 10253 10246 10240 10234 10229 10225 10220 10217 10213 10208 10204 10199 10195 10190 10187 10183 10180 10177 10175 10173 10171 10170 10168 10167 10165 10164 10163 10162 10162 10163 10163 10164 10165 10167 10169 10172 10173 10176 10179 10182
10446 10443 10441 10438 10435 10432 10429 10427 10425 10422 10418 10415 10412 10408 10405 10402 10398 10395 10391 10387 10383 10379 10375 10371 10367 10362 10355 10349 10345 10344 10344 10340 10333 10326 10320 10313 10305 10298 10295 10291 10285 10278 10270 10263 10256 10250 10243 10236 10229 10223 10218 10214 10210 10207 10203 10198 10194 10189 10185 10180 10177 10173 10169 10167 10164 10162 10160 10158 10157 10155 10153 10152 10152 10151 10151 10152 10152 10153 10154 10156 10158 10160 10163 10165 10168 10171
10440 10438 10435 10432 10429 10426 10423 10421 10418 10416 10413 10410 10406 10402 10398 10395 10392 10388 10385 10381 10377 10373 10368 10363 10359 10355 10351 10345 10338 10335 10335 10332 10327 10320 10313 10305 10297 10290 10286 10282 10277 10269 10261 10253 10247 10239 10232 10225 10218 10213 10208 10203 10200 10196 10192 10188 10184 10180 10175 10171 10167 10163 10159 10156 10153 10151 10149 10147 10145 10144 10142 10142 10140 10140 10140 10140 10142 10143 10144 10146 10148 10150 10152 10155 10157 10160
10434 10432 10430 10427 10423 10420 10418 10415 10413 10410 10407 10403 10400 10396 10392 10388 10385 10382 10378 10374 10370 10366 10362 10357 10352 10347 10343 10338 10333 10328 10327 10324 10320 10313 10307 10299 10291 10283 10278 10273 10268 10260 10252 10244 10237 10229 10222 10215 10208 10203 10198 10193 10190 10186 10182 10178 10174 10170 10166 10162 10157 10153 10150 10147 10143 10141 10139 10137 10135 10133 10132 10131 10130 10130 10130 10131 10132 10133 10135 10136 10138 10140 10142 10145 10147 10150
10428 10426 10424 10422 10418 10415 10412 10410 10407 10405 10402 10398 10395 10391 10387 10382 10378 10375 10371 10367 10363 10359 10355 10350 10345 10340 10336 10331 10326 10322 10318 10316 10312 10306 10299 10292 10285 10277 10270 10265 10259 10251 10242 10234 10227 10220 10212 10205 10198 10193 10188 10183 10180 10176 10172 10168 10165 10160 10156 10152 10148 10144 10140 10137 10135 10132 10130 10127 10125 10124 10122 10122 10121 10120 10121 10122 10122 10123 10125 10127 10128 10130 10132 10135 10137 10140
10423 10420 10418 10417 10414 10410 10407 10403 10402 10399 10397 10393 10389 10385 10381 10377 10372 10368 10364 10361 10357 10352 10348 10343 10338 10333 10328 10323 10318 10313 10310 10308 10303 10298 10291 10284 10277 10269 10263 10258 10251 10242 10233 10225 10217 10210 10203 10195 10189 10183 10178 10174 10170 10167 10163 10159 10155 10151 10147 10143 10139 10135 10132 10128 10126 10123 10120 10118 10117 10115 10113 10112 10112 10112 10112 10113 10114 10115 10117 10118 10120 10121 10123 10125 10127 10130
10418 10415 10412 10410 10408 10406 10402 10398 10396 10393 10391 10387 10383 10379 10375 10371 10367 10362 10358 10354 10350 10346 10341 10336 10330 10325 10321 10316 10310 10306 10302 10300 10296 10290 10283 10277 10268 10260 10254 10248 10242 10234 10225 10217 10208 10200 10193 10186 10180 10174 10169 10165 10161 10157 10154 10150 10146 10142 10138 10134 10130 10127 10123 10120 10117 10115 10112 10110 10108 10106 10105 10104 10103 10103 10104 10105 10106 10107 10108 10110 10111 10112 10114 10116 10118 10121
10413 10410 10407 10405 10403 10400 10397 10394 10391 10388 10385 10382 10378 10373 10369 10365 10361 10357 10352 10348 10344 10340 10335 10329 10324 10319 10314 10309 10304 10300 10295 10292 10288 10282 10275 10268 10260 10253 10245 10240 10233 10225 10217 10208 10200 10191 10183 10177 10171 10165 10160 10155 10152 10148 10145 10142 10137 10133 10129 10125 10122 10118 10115 10112 10109 10107 10104 10102 10100 10098 10097 10096 10096 10096 10097 10097 10098 10099 10100 10102 10103 10104 10105 10108 10110 10113
10408 10405 10403 10400 10397 10395 10392 10388 10385 10382 10379 10375 10372 10368 10363 10360 10355 10352 10347 10343 10339 10334 10329 10323 10318 10313 10307 10302 10297 10292 10288 10284 10279 10273 10266 10258 10251 10244 10237 10231 10223 10216 10207 10198 10190 10182 10175 10168 10162 10156 10151 10146 10142 10139 10136 10133 10129 10125 10120 10117 10113 10110 10107 10104 10102 10099 10097 10094 10092 10091 10090 10089 10088 10088 10089 10090 10091 10092 10093 10093 10095 10096 10098 10100 10102 10105
10403 10400 10397 10395 10392 10389 10386 10383 10380 10377 10373 10370 10365 10361 10357 10353 10348 10345 10341 10337 10333 10328 10323 10318 10312 10307 10301 10295 10289 10283 10278 10275 10270 10265 10257 10248 10240 10233 10227 10222 10215 10207 10198 10190 10182 10173 10166 10159 10153 10148 10142 10137 10133 10130 10128 10124 10121 10117 10113 10108 10105 10102 10099 10097 10094 10092 10089 10087 10085 10083 10083 10082 10082 10082 10082 10083 10083 10085 10085 10087 10088 10089 10090 10092 10095 10097
10397 10395 10392 10389 10387 10383 10380 10377 10374 10371 10367 10364 10360 10356 10351 10347 10342 10338 10333 10330 10325 10321 10316 10311 10305 10300 10294 10288 10282 10276 10270 10266 10261 10255 10248 10240 10231 10223 10217 10211 10205 10198 10190 10182 10173 10165 10157 10151 10145 10139 10133 10128 10125 10122 10119 10116 10113 10109 10105 10101 10098 10095 10092 10089 10087 10084 10082 10080 10078 10077 10076 10075 10075 10075 10075 10076 10077 10078 10078 10080 10081 10082 10083 10085 10088 10090
10392 10389 10387 10383 10381 10378 10375 10372 10368 10365 10362 10358 10354 10350 10346 10341 10336 10331 10327 10323 10318 10314 10309 10304 10298 10293 10287 10281 10275 10268 10262 10257 10252 10245 10238 10230 10223 10215 10207 10201 10195 10189 10182 10174 10166 10157 10149 10142 10136 10131 10125 10120 10117 10113 10111 10108 10105 10102 10098 10094 10091 10088 10085 10082 10080 10078 10075 10073 10072 10070 10070 10069 10069 10069 10069 10070 10070 10071 10072 10073 10074 10075 10077 10079 10081 10083
10386 10383 10381 10378 10375 10372 10368 10365 10362 10358 10355 10351 10347 10343 10339 10335 10330 10325 10320 10316 10312 10307 10302 10298 10293 10287 10281 10274 10267 10261 10255 10249 10243 10237 10229 10222 10214 10207 10199 10193 10187 10181 10174 10167 10160 10152 10143 10135 10128 10122 10117 10113 10108 10106 10103 10101 10098 10094 10090 10087 10084 10081 10078 10076 10073 10071 10069 10067 10065 10064 10063 10063 10063 10063 10063 10063 10064 10065 10066 10067 10068 10070 10071 10073 10075 10077
10381 10378 10375 10373 10370 10366 10363 10359 10356 10352 10348 10345 10340 10337 10332 10328 10324 10319 10314 10309 10305 10300 10295 10290 10286 10281 10275 10268 10262 10255 10248 10243 10237 10230 10222 10213 10205 10198 10191 10185 10179 10173 10167 10160 10153 10147 10138 10129 10121 10114 10109 10105 10101 10098 10096 10094 10091 10088 10084 10080 10077 10075 10072 10070 10067 10065 10063 10061 10060 10058 10058 10057 10057 10057 10057 10057 10058 10059 10060 10061 10062 10063 10065 10067 10069 10071
10375 10372 10369 10367 10363 10360 10357 10353 10350 10346 10342 10338 10334 10330 10325 10321 10317 10313 10308 10303 10298 10293 10288 10283 10278 10273 10268 10262 10255 10248 10241 10235 10229 10223 10215 10206 10198 10190 10183 10177 10170 10164 10158 10152 10146 10139 10133 10125 10117 10108 10102 10097 10093 10091 10089 10087 10085 10082 10078 10074 10072 10068 10066 10063 10061 10058 10057 10055 10053 10053 10052 10052 10051 10051 10052 10052 10052 10053 10054 10055 10057 10058 10059 10061 10063 10065
10368 10366 10363 10360 10357 10354 10351 10348 10343 10340 10336 10332 10327 10323 10318 10314 10310 10305 10301 10296 10292 10287 10281 10276 10271 10266 10261 10255 10249 10242 10233 10227 10220 10215 10208 10200 10192 10183 10177 10170 10162 10156 10150 10145 10138 10132 10125 10118 10112 10103 10096 10090 10086 10083 10082 10080 10078 10075 10072 10068 10065 10063 10060 10058 10055 10053 10051 10049 10048 10047 10047 10046 10046 10045 10046 10046 10047 10047 10048 10050 10051 10052 10054 10055 10057 10060
10362 10359 10357 10353 10350 10348 10345 10341 10337 10333 10329 10325 10320 10316 10311 10307 10302 10298 10293 10288 10284 10279 10274 10268 10263 10259 10254 10249 10243 10236 10228 10221 10214 10207 10201 10193 10185 10177 10170 10163 10156 10149 10143 10138 10132 10126 10119 10112 10105 10098 10091 10084 10079 10077 10075 10074 10072 10069 10066 10063 10060 10058 10055 10052 10050 10047 10045 10043 10043 10042 10042 10041 10040 10040 10040 10041 10042 10042 10043 10044 10045 10047 10048 10050 10052 10054
10356 10353 10350 10347 10344 10342 10338 10335 10331 10327 10323 10318 10313 10309 10304 10300 10295 10290 10286 10282 10277 10272 10267 10262 10257 10251 10246 10241 10235 10229 10223 10215 10208 10202 10194 10187 10178 10170 10163 10156 10149 10142 10136 10130 10125 10120 10114 10107 10100 10093 10087 10080 10074 10070 10069 10068 10067 10063 10060 10058 10055 10053 10050 10047 10044 10042 10040 10038 10038 10037 10037 10036 10035 10035 10035 10035 10036 10037 10038 10038 10040 10042 10043 10045 10047 10049
10350 10347 10345 10342 10338 10335 10332 10328 10325 10321 10317 10312 10307 10302 10297 10292 10288 10283 10278 10274 10269 10265 10260 10255 10250 10245 10239 10233 10227 10221 10214 10208 10202 10195 10188 10180 10172 10164 10156 10149 10143 10136 10130 10124 10118 10113 10107 10102 10095 10088 10081 10075 10070 10065 10063 10062 10060 10058 10055 10052 10050 10048 10045 10042 10039 10036 10034 10033 10033 10032 10032 10031 10030 10030 10030 10030 10031 10032 10032 10033 10035 10036 10038 10040 10042 10045
10345 10342 10339 10336 10332 10329 10325 10322 10318 10314 10310 10305 10301 10296 10291 10286 10281 10276 10272 10267 10262 10257 10252 10248 10243 10238 10233 10228 10221 10213 10207 10200 10193 10187 10180 10173 10165 10157 10150 10143 10136 10130 10123 10118 10113 10108 10102 10095 10089 10083 10076 10070 10065 10062 10058 10057 10055 10052 10050 10047 10045 10043 10041 10038 10035 10032 10029 10028 10028 10027 10027 10027 10026 10025 10025 10025 10026 10027 10027 10028 10030 10032 10033 10035 10038 10040
10340 10337 10333 10330 10327 10323 10319 10315 10312 10308 10303 10298 10294 10290 10285 10280 10274 10269 10264 10260 10255 10250 10245 10240 10235 10231 10227 10222 10215 10208 10200 10193 10186 10180 10173 10167 10159 10152 10143 10137 10130 10124 10118 10112 10108 10103 10097 10091 10084 10078 10071 10065 10060 10057 10054 10052 10050 10047 10044 10042 10040 10038 10036 10033 10030 10027 10025 10023 10023 10023 10022 10022 10022 10021 10020 10021 10021 10022 10023 10024 10025 10027 10029 10031 10033 10036
10335 10331 10328 10325 10321 10318 10313 10310 10306 10302 10297 10292 10288 10283 10278 10273 10268 10262 10257 10252 10247 10242 10237 10232 10227 10222 10218 10213 10208 10202 10195 10187 10180 10173 10166 10160 10153 10146 10138 10131 10124 10118 10113 10107 10102 10097 10092 10086 10080 10073 10067 10061 10055 10052 10049 10048 10045 10043 10039 10037 10035 10033 10032 10029 10026 10023 10021 10020 10019 10018 10018 10018 10017 10017 10016 10017 10017 10017 10018 10020 10021 10023 10025 10027 10030 10032
10330 10326 10322 10319 10316 10312 10308 10304 10300 10296 10292 10287 10282 10277 10272 10266 10261 10256 10251 10245 10240 10235 10230 10224 10218 10213 10208 10203 10198 10192 10187 10180 10173 10166 10159 10153 10146 10140 10132 10125 10118 10112 10107 10102 10097 10092 10087 10082 10075 10069 10063 10057 10052 10048 10045 10043 10040 10038 10035 10032 10029 10028 10027 10025 10022 10020 10017 10016 10015 10014 10014 10013 10013 10012 10012 10012 10013 10013 10014 10015 10017 10019 10021 10023 10026 10028
10324 10321 10317 10313 10310 10307 10303 10298 10294 10290 10286 10281 10277 10272 10267 10261 10255 10250 10245 10240 10235 10230 10224 10218 10212 10206 10200 10195 10189 10183 10177 10172 10165 10158 10152 10145 10139 10133 10126 10118 10112 10106 10101 10096 10092 10087 10082 10077 10072 10065 10059 10053 10049 10045 10042 10039 10037 10034 10031 10027 10025 10023 10022 10020 10018 10016 10013 10012 10011 10010 10010 10010 10009 10008 10008 10008 10009 10010 10011 10012 10013 10015 10018 10020 10022 10025
10319 10315 10312 10308 10305 10302 10298 10294 10290 10285 10281 10276 10271 10267 10262 10256 10250 10245 10240 10235 10230 10225 10220 10213 10207 10200 10195 10189 10183 10177 10170 10163 10158 10152 10145 10138 10132 10125 10119 10113 10107 10101 10095 10090 10086 10082 10077 10073 10068 10062 10057 10052 10047 10042 10038 10035 10032 10030 10027 10024 10021 10018 10017 10015 10014 10012 10010 10008 10007 10007 10006 10006 10005 10005 10005 10005 10005 10006 10007 10008 10010 10012 10015 10017 10019 10022
10313 10310 10306 10303 10299 10296 10292 10288 10285 10280 10276 10272 10267 10262 10257 10251 10245 10240 10234 10229 10224 10219 10214 10208 10202 10195 10188 10182 10176 10170 10164 10158 10151 10145 10138 10132 10126 10120 10113 10107 10102 10096 10090 10085 10081 10077 10073 10068 10063 10058 10053 10048 10044 10040 10036 10032 10029 10026 10023 10020 10018 10015 10013 10012 10010 10008 10007 10005 10004 10003 10003 10002 10002 10002 10002 10002 10002 10003 10004 10005 10007 10009 10011 10013 10015 10018
10308 10305 10301 10297 10294 10290 10287 10283 10279 10275 10271 10267 10262 10257 10252 10247 10241 10235 10230 10224 10219 10213 10208 10203 10197 10190 10182 10175 10168 10162 10157 10151 10145 10139 10133 10127 10120 10114 10108 10102 10097 10091 10086 10081 10077 10073 10068 10064 10059 10054 10049 10045 10041 10037 10033 10029 10026 10023 10020 10017 10015 10012 10010 10008 10007 10005 10004 10002 10001 10000 10000 9999 9999 9998 9998 9998 9999 10000 10001 10003 10004 10006 10008 10010 10012 10015
10303 10299 10295 10292 10288 10285 10282 10278 10274 10270 10266 10262 10257 10252 10247 10242 10237 10232 10226 10220 10215 10209 10203 10198 10192 10185 10178 10171 10163 10156 10150 10144 10138 10133 10127 10122 10115 10109 10103 10097 10091 10086 10080 10076 10072 10068 10064 10060 10055 10050 10045 10041 10037 10034 10031 10027 10023 10020 10017 10014 10012 10009 10007 10005 10003 10002 10000 10000 9998 9997 9997 9996 9996 9996 9996 9996 9997 9997 9998 10000 10002 10003 10005 10007 10009 10012
10298 10294 10290 10287 10283 10280 10277 10273 10269 10265 10261 10257 10252 10247 10242 10237 10232 10227 10221 10215 10210 10205 10199 10193 10187 10180 10173 10167 10159 10152 10144 10138 10132 10127 10122 10117 10111 10105 10098 10092 10086 10080 10075 10071 10067 10062 10058 10055 10052 10047 10042 10037 10033 10030 10028 10024 10021 10017 10013 10010 10008 10007 10004 10002 10000 9998 9998 9997 9996 9995 9994 9993 9993 9993 9993 9993 9994 9995 9996 9997 9998 10000 10002 10004 10006 10008
10293 10289 10285 10282 10278 10275 10272 10268 10264 10260 10255 10251 10247 10242 10237 10232 10227 10222 10216 10211 10205 10199 10194 10188 10182 10175 10168 10162 10155 10148 10140 10133 10127 10122 10117 10111 10105 10100 10094 10088 10082 10076 10070 10065 10062 10057 10054 10050 10047 10043 10039 10035 10030 10027 10023 10021 10018 10014 10011 10008 10005 10003 10002 9999 9998 9996 9995 9994 9993 9992 9992 9991 9991 9991 9991 9991 9992 9992 9993 9995 9996 9998 10000 10002 10003 10006
10288 10285 10281 10277 10273 10270 10267 10263 10259 10255 10250 10246 10241 10237 10232 10227 10221 10216 10211 10206 10200 10194 10188 10183 10177 10172 10165 10158 10152 10144 10137 10130 10123 10117 10112 10106 10100 10095 10089 10083 10077 10072 10065 10060 10056 10052 10049 10046 10043 10040 10035 10032 10027 10023 10020 10017 10015 10012 10008 10005 10003 10000 9998 9997 9995 9993 9992 9992 9990 9990 9989 9989 9988 9988 9988 9989 9989 9990 9991 9992 9993 9995 9997 9999 10002 10004
10284 10280 10277 10273 10269 10265 10262 10258 10254 10250 10245 10240 10235 10231 10226 10221 10216 10210 10205 10200 10195 10190 10183 10178 10172 10167 10161 10155 10148 10142 10135 10127 10120 10113 10107 10102 10096 10090 10085 10079 10073 10067 10062 10056 10051 10047 10043 10040 10038 10035 10032 10028 10023 10020 10017 10014 10012 10008 10006 10003 10000 9998 9996 9994 9993 9992 9990 9989 9988 9988 9987 9987 9987 9987 9987 9987 9987 9988 9989 9990 9992 9993 9995 9997 10000 10002
10280 10276 10272 10268 10264 10260 10257 10253 10249 10245 10240 10235 10230 10225 10220 10216 10211 10206 10200 10195 10190 10185 10179 10173 10167 10162 10156 10150 10144 10138 10132 10125 10118 10112 10105 10099 10093 10087 10082 10075 10070 10063 10058 10052 10047 10042 10038 10035 10033 10030 10028 10024 10020 10017 10013 10010 10008 10005 10003 10000 9998 9996 9994 9992 9991 9989 9988 9987 9986 9985 9985 9985 9984 9984 9985 9985 9985 9986 9987 9988 9990 9992 9993 9995 9998 10000
10276 10272 10268 10264 10260 10256 10252 10248 10244 10240 10235 10230 10225 10219 10215 10210 10206 10201 10196 10190 10185 10180 10175 10169 10163 10157 10152 10145 10140 10134 10128 10122 10115 10109 10103 10097 10091 10085 10079 10073 10067 10062 10055 10050 10044 10038 10034 10031 10028 10027 10024 10021 10018 10014 10011 10008 10005 10002 10000 9998 9996 9994 9992 9990 9988 9987 9986 9985 9984 9983 9983 9983 9982 9982 9983 9983 9983 9984 9985 9987 9988 9990 9992 9993 9996 9998
10272 10268 10264 10260 10255 10252 10247 10243 10239 10235 10230 10225 10220 10215 10210 10205 10200 10196 10191 10187 10181 10176 10171 10165 10160 10154 10147 10141 10135 10130 10124 10118 10112 10105 10100 10094 10088 10083 10077 10072 10066 10060 10054 10048 10042 10037 10032 10027 10025 10023 10022 10019 10016 10012 10009 10006 10003 10000 9998 9996 9994 9992 9990 9988 9987 9985 9985 9983 9982 9982 9981 9981 9980 9980 9981 9982 9982 9983 9984 9985 9987 9988 9990 9992 9994 9997
10267 10263 10259 10255 10251 10247 10243 10238 10235 10230 10225 10220 10215 10210 10205 10200 10196 10191 10187 10182 10177 10172 10167 10162 10156 10150 10144 10137 10131 10125 10120 10114 10108 10102 10097 10091 10086 10080 10075 10070 10065 10060 10053 10048 10042 10036 10030 10025 10022 10019 10018 10017 10014 10011 10007 10003 10001 9998 9996 9994 9992 9990 9988 9987 9985 9984 9983 9982 9981 9980 9980 9979 9979 9979 9979 9980 9980 9982 9982 9983 9985 9987 9988 9990 9993 9995